Location: Couloutre
(47.4081°N, 3.2259°E)
Time: 02:35:15
(UTC+00:00)

Cosmos 1869 Rocket - Pass Details

Date: 27 February 2020
Orbit: 605 x 633 km, 82.5° (Epoch: 03 April)

Event Time Altitude Azimuth Distance (km) Brightness Sun altitude
Rises 19:07:26 0° 189° (S) 2,887 7.0 -17.5°
Reaches altitude 10° 19:09:40 10° 190° (S) 1,981 6.2 -17.9°
Maximum altitude 19:14:03 83° 279° (W) 626 3.5 -18.6°
Drops below altitude 10° 19:18:27 10° 8° (N) 1,980 6.2 -19.4°
Sets 19:20:40 0° 9° (N) 2,885 7.0 -19.7°
